Погода в Полынянке

Россия / Томская область     56°57′11″N   82°30′29″E
темп.,
°C
ветер,
м/с
пор.,
м/с
влажн.,
%
обл.,
%
осадки,
мм/ч
давл.,
гПа
погр.,
м
26 июля, пн
пн2601:00+19ююз22695 0.0 100244
04:00+18ю2282100 0.3 100136
07:00+18ююв1297100 3.2 100156
10:00+23юз1278100 1.3 1000401
13:00+25ююз2381100 6.6 998560
16:00+23з2690100 3.3 999325
19:00+16сз51199100 24.3 1000521
22:00+12зсз51196100 0.6 1003711
27 июля, вт
вт2701:00+11зсз41092100 0.6 1004926
04:00+12зсз51073100 0.0 1005938
07:00+11з4108452 0.0 1007704
10:00+15зсз59580 0.0 10081262
13:00+19зсз574458 0.0 10082122
16:00+18зсз5649100 0.0 10081376
19:00+16сз3659100 0.0 1009561
22:00+14зсз1169100 0.0 101022
28 июля, ср
ср2801:00+13з1169100 0.0 101016
04:00+13зсз1168100 0.0 100910
07:00+13зюз0072100 0.0 101014
10:00+16ююз236294 0.1 1010219
13:00+20зюз4343100 0.1 10092348
16:00+20ююз234156 0.1 10092155
19:00+15ююз2470100 0.1 1009120
22:00+14ю2475100 0.0 100996
29 июля, чт
чт2901:00+12ю257896 0.0 1009109
04:00+11ю2480100 0.0 100989
07:00+12ю3876100 0.0 1009244
10:00+14ю31069100 0.0 1008503
13:00+13юз3992100 0.5 1009464
16:00+17зюз357537 0.4 1009956
19:00+18з33595 0.6 10091088
22:00+12ю0084100 0.3 101010
30 июля, пт
пт3001:00+12юз1182100 0.3 101010
04:00+12ююз1184100 0.0 101011
07:00+11зюз129599 0.8 101156
10:00+16зюз23725 0.1 1011430
13:00+20зюз464697 0.3 10112262
16:00+19з3646100 0.0 10112215
19:00+16з1165100 0.0 101111
22:00+14ю2463100 0.0 101180